Regional Weather Roundup
Issued by NWS Sterling, VA

Home | Current Version | Previous Version | Graphics & Text | Print | Product List | Glossary On
Versions: 1 2 3 4 5 6 7 8 9 10 11 12 13 14 15 16 17 18 19 20 21 22 23 24 25 26 27 28 29 30 31 32 33 34 35 36 37 38 39 40 41 42 43 44 45 46 47 48 49 50
000
ASUS41 KLWX 220510
RWRLWX

REGIONAL WEATHER ROUNDUP
NATIONAL WEATHER SERVICE BALTIMORE MD/WASHINGTON DC
100 AM EDT TUE JUL 22 2014

Note: "FAIR" indicates few or no clouds below 12,000 feet
with no significant weather and/or obstructions to visibility.
 TC=TEMPERATURE CELSIUS

 * =Non NWS site. Station does not report precipitation (e.g. rain,
    snow, etc.), thunder, or fog.

DCZ001-MDZ009-015-VAZ040>042-051-053>054-220600-
WASHINGTON METRO
  /KDAA//-FT BELVOIR

CITY           SKY/WX    TMP DP  RH WIND       PRES   REMARKS
WASHINGTON NAT PTCLDY    76  67  73 S6        30.18F
DULLES         PTCLDY    71  68  90 S5        30.18S
ANDREWS AFB    MOCLDY    70  68  93 SE5       30.18F
QUANTICO       CLOUDY    76  71  85 S14       30.19R
COLLEGE PARK*  PTCLDY    70  68  94 CALM      30.17F
LEESBURG*      PTCLDY    73  72  94 CALM      30.20R
MANASSAS*      MOCLDY    72  72 100 CALM      30.18S
GAITHERSBURG*  CLEAR     72  64  78 SE5       30.23S

$$

MDZ006>007-011-014-220600-
BALTIMORE METRO

CITY           SKY/WX    TMP DP  RH WIND       PRES   REMARKS
BWI AIRPORT    PTCLDY    71  67  87 CALM      30.17F
MD SCIENCE CTR   N/A     76  67  73 MISG      30.18S
MARTIN STATE   PTCLDY    75  70  83 S3        30.19S
ANNAPOLIS      MOCLDY    74  68  81 S3        30.17F
FORT MEADE*    PTCLDY    64  63  94 CALM      30.20F

$$

MDZ012-015-019>023-220600-
MARYLAND EASTERN SHORE

CITY           SKY/WX    TMP DP  RH WIND       PRES   REMARKS
OCEAN CITY     MOCLDY    65  63  93 CALM      30.18F
SALISBURY      NOT AVBL
BAY BRIDGE AP*   N/A     73  70  88 S5        30.18S
CAMBRIDGE*     PTCLDY    72  68  88 CALM      30.18S
EASTON*        MOCLDY    74  72  95 S5        30.22S

$$

MDZ017>025-220600-
SOUTHERN MARYLAND

CITY           SKY/WX    TMP DP  RH WIND       PRES   REMARKS
PATUXENT RIVER PTCLDY    72  68  87 S3        30.18S
ST INIGOES     PTCLDY    73  66  78 S3        30.17F
LEONARDTOWN*   MOCLDY    70  66  88 MISG      30.20S

$$

MDZ003>005-220600-
NORTH CENTRAL MARYLAND

CITY           SKY/WX    TMP DP  RH WIND       PRES   REMARKS
FREDERICK*     CLEAR     70  70 100 CALM      30.20S
HAGERSTOWN APT CLEAR     73  67  81 S7        30.18S
WESTMINSTER*   PTCLDY    72  70  94 CALM      30.20S

$$

MDZ501>502-220600-
WESTERN MARYLAND

CITY           SKY/WX    TMP DP  RH WIND       PRES   REMARKS
OAKLAND*       MOCLDY    64 N/A N/A SE7       30.26R FOG
CUMBERLAND*      N/A     73  70  88 CALM      30.21R

$$

VAZ025>031-220600-
SHENANDOAH VALLEY

CITY           SKY/WX    TMP DP  RH WIND       PRES   REMARKS
WINCHESTER*    PTCLDY    72  68  88 SE5       30.19R
STAUNTON*      CLOUDY    72  68  88 E5        30.22R

$$

WVZ021-048>050-054>055-220600-
EASTERN WEST VIRGINIA PANHANDLE

CITY           SKY/WX    TMP DP  RH WIND       PRES   REMARKS
MARTINSBURG    MOCLDY    71  67  87 CALM      30.19R
PETERSBURG*    PTCLDY    68  63  83 CALM      30.18F

$$

VAZ036>039-050-220600-
CENTRAL FOOTHILLS

CITY           SKY/WX    TMP DP  RH WIND       PRES   REMARKS
CHARLOTTESVILL CLOUDY    73  70  90 S7        30.19R
ORANGE*        CLOUDY    72  70  94 CALM      30.20S

$$

VAZ055>057-220600-
NORTH AND CENTRAL PIEDMONT

CITY           SKY/WX    TMP DP  RH WIND       PRES   REMARKS
FREDERICKSBRG* MOCLDY    73  72  95 SE3       30.17S
STAFFORD*      MOCLDY    71  71 100 SE5       30.22S

$$

NCZ024-NYZ072-PAZ021-071-VAZ022-071-220600-
OTHER REGIONAL OBSERVATIONS

CITY           SKY/WX    TMP DP  RH WIND       PRES   REMARKS
NEW YORK CITY  CLEAR     72  61  68 VRB3      30.19F
PHILADELPHIA   CLEAR     72  59  63 W5        30.19R
PITTSBURGH     CLEAR     73  69  87 CALM      30.14S
ROANOKE        CLOUDY    72  68  87 CALM      30.21S
RICHMOND       MOCLDY    72  69  90 E3        30.18S
RALEIGH        MOCLDY    73  70  90 CALM      30.16F FOG

$$

ANZ530>537-220600-
MARINE OBSERVATIONS

STATION/POSITION TIME  TEMP    WIND        PRES
                       AIR SEA DIR/SP/G
                 (UTC) (F)     (DEG/KT/KT) (MB)
THOMAS PT LIGHT  0500   75 80  170/ 13/ 14 1022.3F
BALT KEY BRIDGE  0500   76     210/  7/  8 1021.6R
COVE POINT       0500   75     190/ 11/ 12 1021.9S
LEWISETTA        0500   74 80     CALM     1021.6F
SOLOMONS ISLAND  0500      81                N/A
PINEY POINT      0500          190/  7/  9   N/A

$$




USA.gov is the U.S. government's official web portal to all federal, state and local government web resources and services.